Meteo Giornale » Osservazioni meteo Nuova Zelanda » Auckland
ore: 05:00 - Osservazioni Meteo Auckland
Lat. 37° 1' S Lon. 174° 48' E Alt. 7 metri s.l.m.
12 °C
Molto Nuvoloso
Temp. 24 Ore
11 °C
15 °C
Ovest/Sud-Ovest
16.7 Km/h
Dew point 8 °C
Umidità 76 %
Visibilità 10 Km
Il sole sorge alle ore 06:40
Il sole tramonta alle ore 18:00
| Data e Ora | Cielo e Fenomeni | T °C | DP °C | Um. % | Pres. hPa | Vis. km | Vento km/h | |
|---|---|---|---|---|---|---|---|---|
| Oggi h: 05:00 | Molto Nuvoloso | 12 | 8 | 76 | 1020 | 10 | O/SO 16.7 | |
| Oggi h: 04:30 | Molto Nuvoloso | 11 | 8 | 81 | 1019 | 10 | O 11.1 | |
| Oggi h: 04:00 | Molto Nuvoloso | 11 | 10 | 93 | 1019 | 10 | SO 9.3 | |
| Oggi h: 03:30 | Sereno | 11 | 9 | 87 | 1019 | 10 | N 5.5 | |
| Oggi h: 03:00 | Nuvoloso | 12 | 8 | 76 | 1020 | 10 | SO 16.7 | |
| Oggi h: 02:30 | Coperto | 13 | 8 | 71 | 1020 | 10 | SO 20.3 | |
| Oggi h: 02:00 | Coperto | 13 | 8 | 71 | 1020 | 10 | O/SO 29.6 | |
| Oggi h: 01:30 | Molto Nuvoloso | 13 | 9 | 76 | 1020 | 10 | O/SO 16.7 | |
| Oggi h: 01:00 | Molto Nuvoloso | 13 | 8 | 71 | 1020 | 10 | SO 31.5 | |
| Oggi h: 00:30 | Poco Nuvoloso | 13 | 7 | 66 | 1020 | 10 | SO 22.2 | |
| Oggi h: 00:00 | Coperto | 13 | 8 | 71 | 1020 | 10 | O/SO 29.6 | |
| Ieri h: 23:30 | Coperto | 13 | 8 | 71 | 1020 | 10 | O/SO 20.3 | |
| Ieri h: 23:00 | Molto Nuvoloso | 13 | 7 | 66 | 1020 | 10 | O/SO 20.3 | |
| Ieri h: 22:30 | Molto Nuvoloso | 13 | 7 | 66 | 1020 | 10 | SO 27.8 | |
| Ieri h: 22:00 | Molto Nuvoloso | 13 | 7 | 66 | 1019 | 10 | SO 33.3 | |
| Ieri h: 21:30 | Coperto | 13 | 9 | 76 | 1019 | 10 | O/SO 29.6 | |
| Ieri h: 21:00 | Molto Nuvoloso | 13 | 7 | 66 | 1019 | 10 | O/SO 20.3 | |
| Ieri h: 20:30 | Molto Nuvoloso | 13 | 7 | 66 | 1019 | 10 | O/SO 27.8 | |
| Ieri h: 20:00 | Coperto | 13 | 9 | 76 | 1019 | 10 | SO 31.5 | |
| Ieri h: 19:30 | Molto Nuvoloso | 13 | 7 | 66 | 1018 | 10 | SO 29.6 | |
| Ieri h: 19:00 | Molto Nuvoloso | 13 | 7 | 66 | 1018 | 10 | SO 33.3 | |
| Ieri h: 18:30 | Pioviggine | 13 | 8 | 71 | 1018 | 10 | SO 31.5 | |
| Ieri h: 18:00 | Molto Nuvoloso | 13 | 7 | 66 | 1017 | 10 | SO 38.8 | |
| Ieri h: 17:30 | Molto Nuvoloso | 13 | 8 | 71 | 1017 | 10 | SO 35.2 | |
| Ieri h: 17:00 | Molto Nuvoloso | 13 | 8 | 71 | 1017 | 10 | SO 35.2 | |
| Ieri h: 16:30 | Molto Nuvoloso | 14 | 7 | 62 | 1017 | 10 | SO 37 | |
| Ieri h: 16:00 | Coperto | 14 | 8 | 67 | 1017 | 10 | SO 33.3 | |
| Ieri h: 15:30 | Molto Nuvoloso | 14 | 7 | 62 | 1017 | 10 | SO 37 | |
| Ieri h: 15:00 | Molto Nuvoloso | 15 | 7 | 58 | 1016 | 10 | SO 38.8 | |
| Ieri h: 14:30 | Molto Nuvoloso | 15 | 9 | 67 | 1016 | 10 | SO 33.3 | |
| Ieri h: 14:00 | Molto Nuvoloso | 15 | 8 | 62 | 1016 | 10 | SO 37 | |
| Ieri h: 13:30 | Pioggia | 15 | 10 | 72 | 1016 | 10 | SO 33.3 | |
| Ieri h: 13:00 | Molto Nuvoloso | 14 | 8 | 67 | 1017 | 10 | SO 37 | |
| Ieri h: 12:30 | Molto Nuvoloso | 15 | 8 | 62 | 1017 | 10 | SO 35.2 | |
| Ieri h: 12:00 | Coperto | 14 | 8 | 67 | 1017 | 10 | SO 40.7 | |
| Ieri h: 11:30 | Molto Nuvoloso | 15 | 8 | 62 | 1016 | 10 | SO 42.6 | |
| Ieri h: 11:00 | Poco Nuvoloso | 15 | 6 | 54 | 1016 | 10 | SO 38.8 | |
| Ieri h: 10:30 | Molto Nuvoloso | 15 | 7 | 58 | 1016 | 10 | SO 38.8 | |
| Ieri h: 10:00 | Coperto | 14 | 7 | 62 | 1016 | 10 | SO 44.4 | |
| Ieri h: 09:30 | Coperto | 14 | 9 | 71 | 1015 | 10 | SO 35.2 | |
| Ieri h: 09:00 | Coperto | 14 | 9 | 71 | 1015 | 10 | SO 33.3 | |
| Ieri h: 08:30 | Coperto | 14 | 9 | 71 | 1015 | 10 | SO 33.3 | |
| Ieri h: 08:00 | Coperto | 13 | 9 | 76 | 1014 | 10 | SO 29.6 | |
| Ieri h: 07:30 | Molto Nuvoloso | 12 | 10 | 87 | 1014 | 10 | O/SO 29.6 | |
| Ieri h: 07:00 | Pioggia | 12 | 10 | 87 | 1014 | 7 | SO 35.2 | |
| Ieri h: 06:30 | Pioggia | 12 | 10 | 87 | 1013 | 6 | SO 35.2 | |
| Ieri h: 06:00 | Molto Nuvoloso | 13 | 10 | 81 | 1013 | 10 | O/SO 27.8 | |



